| time (UTC) | temp C | wind direction | speed KPH | gust KPH | rain 1hr cm | rain 24hr cm | rain mn cm | humidity % | barometer mb |
| 20260506185403 | 11 | 187 | 14.5 | 35.4 | 0.30 | 4.34 | 4.34 | 90 | 1005.9 |
| 20260506184503 | 11 | 207 | 6.4 | 19.3 | 0.30 | 4.34 | 4.34 | 90 | 1005.7 |
| 20260506183603 | 11 | 247 | 4.8 | 19.3 | 0.25 | 4.34 | 4.29 | 90 | 1005.7 |
| 20260506182703 | 11 | 243 | 8.0 | 19.3 | 0.25 | 4.34 | 4.29 | 90 | 1006.1 |
| 20260506182018 | 11 | 227 | 8.0 | 19.3 | 0.10 | 4.24 | 4.14 | 90 | 1005.9 |
| 20260506180903 | 11 | 208 | 14.5 | 24.1 | 0.25 | 4.14 | 4.04 | 90 | 1006.1 |
| 20260506180218 | 11 | 213 | 12.9 | 25.7 | 0.30 | 4.14 | 4.04 | 90 | 1006.0 |
| 20260506175618 | 11 | 221 | 14.5 | 27.4 | 0.30 | 4.14 | 4.04 | 90 | 1006.2 |
| 20260506174503 | 11 | 211 | 14.5 | 30.6 | 0.30 | 4.14 | 4.04 | 90 | 1005.9 |
| 20260506173603 | 11 | 221 | 19.3 | 37.0 | 0.30 | 4.14 | 4.04 | 89 | 1006.1 |
| 20260506172703 | 11 | 219 | 16.1 | 30.6 | 0.30 | 4.14 | 4.04 | 89 | 1006.1 |
| 20260506171803 | 11 | 202 | 12.9 | 24.1 | 0.20 | 4.09 | 3.99 | 89 | 1005.9 |
| 20260506170903 | 11 | 174 | 12.9 | 25.7 | 0.05 | 3.94 | 3.78 | 88 | 1005.5 |
| 20260506170218 | 12 | 174 | 12.9 | 27.4 | 0.00 | 3.89 | 3.73 | 88 | 1005.5 |
| 20260506165403 | 11 | 160 | 11.3 | 24.1 | 0.00 | 3.94 | 3.73 | 88 | 1005.5 |
| 20260506164503 | 11 | 166 | 11.3 | 20.9 | 0.00 | 4.04 | 3.73 | 89 | 1005.4 |
| 20260506163603 | 11 | 165 | 9.7 | 27.4 | 0.00 | 4.09 | 3.73 | 89 | 1005.6 |
| 20260506162703 | 11 | 180 | 11.3 | 25.7 | 0.00 | 4.14 | 3.73 | 89 | 1005.8 |
| 20260506161803 | 11 | 182 | 12.9 | 24.1 | 0.00 | 4.24 | 3.73 | 89 | 1005.8 |
| 20260506160903 | 11 | 196 | 8.0 | 17.7 | 0.00 | 4.29 | 3.73 | 89 | 1005.8 |
| 20260506160003 | 11 | 186 | 9.7 | 22.5 | 0.00 | 4.39 | 3.73 | 89 | 1005.8 |
| 20260506155617 | 11 | 182 | 11.3 | 22.5 | 0.00 | 4.47 | 3.73 | 89 | 1005.8 |
| 20260506154503 | 11 | 187 | 14.5 | 30.6 | 0.05 | 4.52 | 3.73 | 89 | 1005.9 |
| 20260506153603 | 11 | 185 | 12.9 | 33.8 | 0.05 | 4.57 | 3.73 | 90 | 1005.9 |
| 20260506152703 | 11 | 177 | 12.9 | 30.6 | 0.05 | 4.57 | 3.73 | 90 | 1006.2 |
| 20260506151803 | 11 | 181 | 16.1 | 24.1 | 0.10 | 4.60 | 3.73 | 90 | 1006.2 |
| 20260506150903 | 11 | 199 | 14.5 | 30.6 | 0.15 | 4.60 | 3.73 | 90 | 1006.2 |
| 20260506150003 | 11 | 178 | 14.5 | 30.6 | 0.20 | 4.60 | 3.73 | 90 | 1006.4 |
| 20260506145403 | 11 | 192 | 14.5 | 33.8 | 0.20 | 4.60 | 3.73 | 90 | 1006.3 |
| 20260506144503 | 11 | 187 | 12.9 | 24.1 | 0.15 | 4.60 | 3.68 | 90 | 1006.6 |
| 20260506143603 | 11 | 211 | 12.9 | 24.1 | 0.15 | 4.60 | 3.68 | 90 | 1006.4 |
| 20260506142703 | 11 | 219 | 12.9 | 24.1 | 0.15 | 4.60 | 3.68 | 90 | 1006.6 |
| 20260506141804 | 11 | 195 | 11.3 | 20.9 | 0.10 | 4.57 | 3.63 | 90 | 1006.6 |
| 20260506140903 | 11 | 215 | 9.7 | 20.9 | 0.05 | 4.57 | 3.58 | 90 | 1006.7 |
| 20260506140003 | 10 | 205 | 9.7 | 20.9 | 0.00 | 4.52 | 3.53 | 90 | 1006.8 |
| 20260506135403 | 10 | 193 | 9.7 | 20.9 | 0.00 | 4.52 | 3.53 | 90 | 1006.7 |
| 20260506134504 | 10 | 177 | 12.9 | 25.7 | 0.05 | 4.52 | 3.53 | 90 | 1006.9 |
| 20260506133603 | 10 | 178 | 14.5 | 33.8 | 0.10 | 4.52 | 3.53 | 90 | 1007.0 |
| 20260506132703 | 10 | 183 | 14.5 | 30.6 | 0.15 | 4.52 | 3.53 | 91 | 1007.1 |
| 20260506132018 | 10 | 198 | 14.5 | 27.4 | 0.15 | 4.52 | 3.53 | 91 | 1007.2 |
| 20260506130903 | 10 | 217 | 17.7 | 33.8 | 0.15 | 4.57 | 3.53 | 90 | 1007.2 |
| 20260506130005 | 10 | 193 | 12.9 | 27.4 | 0.20 | 4.57 | 3.53 | 91 | 1007.4 |
| 20260506125403 | 10 | 190 | 12.9 | 27.4 | 0.25 | 4.57 | 3.53 | 91 | 1007.0 |
| 20260506124717 | 10 | 198 | 14.5 | 22.5 | 0.20 | 4.52 | 3.48 | 91 | 1007.0 |
| 20260506123603 | 11 | 202 | 9.7 | 20.9 | 0.15 | 4.45 | 3.43 | 90 | 1007.0 |
| 20260506122703 | 10 | 222 | 9.7 | 20.9 | 0.15 | 4.39 | 3.38 | 90 | 1006.7 |
| 20260506121803 | 10 | 215 | 14.5 | 27.4 | 0.15 | 4.47 | 3.38 | 90 | 1006.8 |
| 20260506120903 | 10 | 207 | 14.5 | 29.0 | 0.15 | 4.47 | 3.38 | 91 | 1007.0 |
| 20260506120003 | 10 | 204 | 16.1 | 30.6 | 0.10 | 4.39 | 3.33 | 91 | 1007.0 |
| 20260506115403 | 10 | 188 | 14.5 | 30.6 | 0.05 | 4.34 | 3.25 | 90 | 1007.0 |
| 20260506114717 | 10 | 202 | 12.9 | 25.7 | 0.05 | 4.39 | 3.25 | 90 | 1007.1 |
| 20260506113603 | 10 | 196 | 19.3 | 37.0 | 0.05 | 4.39 | 3.25 | 90 | 1007.0 |
| 20260506112918 | 10 | 185 | 19.3 | 37.0 | 0.00 | 4.34 | 3.20 | 90 | 1007.1 |
| 20260506111803 | 10 | 156 | 12.9 | 24.1 | 0.05 | 4.34 | 3.20 | 91 | 1006.9 |
| 20260506110903 | 10 | 166 | 12.9 | 27.4 | 0.05 | 4.34 | 3.20 | 90 | 1006.8 |
| 20260506110003 | 11 | 163 | 11.3 | 25.7 | 0.15 | 4.34 | 3.20 | 90 | 1007.2 |
| 20260506105403 | 11 | 160 | 16.1 | 29.0 | 0.20 | 4.34 | 3.20 | 90 | 1007.1 |
| 20260506104503 | 11 | 165 | 14.5 | 27.4 | 0.20 | 4.34 | 3.20 | 90 | 1007.1 |
| 20260506103603 | 11 | 163 | 12.9 | 25.7 | 0.20 | 4.39 | 3.20 | 90 | 1007.2 |
| 20260506102917 | 11 | 168 | 11.3 | 24.1 | 0.20 | 4.39 | 3.20 | 90 | 1007.2 |
| 20260506101804 | 11 | 157 | 8.0 | 19.3 | 0.15 | 4.34 | 3.15 | 90 | 1007.4 |
| 20260506101122 | 11 | 168 | 9.7 | 20.9 | 0.15 | 4.39 | 3.15 | 90 | 1007.4 |
| 20260506100003 | 11 | 166 | 12.9 | 22.5 | 0.05 | 4.29 | 3.05 | 90 | 1007.5 |
| 20260506095403 | 11 | 158 | 12.9 | 24.1 | 0.00 | 4.24 | 3.00 | 90 | 1007.4 |
| 20260506094503 | 11 | 145 | 11.3 | 20.9 | 0.05 | 4.24 | 3.00 | 90 | 1007.4 |
| 20260506093603 | 11 | 150 | 11.3 | 19.3 | 0.10 | 4.24 | 3.00 | 90 | 1007.5 |
| 20260506092703 | 11 | 159 | 9.7 | 19.3 | 0.15 | 4.24 | 3.00 | 90 | 1007.5 |
| 20260506091803 | 11 | 156 | 9.7 | 20.9 | 0.20 | 4.24 | 3.00 | 90 | 1007.5 |
| 20260506090903 | 11 | 138 | 8.0 | 16.1 | 0.25 | 4.24 | 3.00 | 90 | 1007.5 |
| 20260506090004 | 10 | 154 | 11.3 | 20.9 | 0.36 | 4.24 | 3.00 | 91 | 1007.5 |
| 20260506085403 | 10 | 157 | 9.7 | 20.9 | 0.41 | 4.24 | 3.00 | 91 | 1007.5 |
| 20260506084503 | 11 | 159 | 11.3 | 19.3 | 0.36 | 4.19 | 2.95 | 91 | 1007.6 |
| 20260506083603 | 10 | 149 | 11.3 | 20.9 | 0.36 | 4.14 | 2.95 | 91 | 1007.5 |
| 20260506082703 | 10 | 154 | 12.9 | 24.1 | 0.30 | 4.09 | 2.84 | 91 | 1007.4 |
| 20260506081803 | 10 | 171 | 12.9 | 25.7 | 0.30 | 4.04 | 2.79 | 91 | 1007.4 |
| 20260506081117 | 10 | 175 | 9.7 | 20.9 | 0.25 | 3.99 | 2.74 | 91 | 1007.3 |
| 20260506072703 | 10 | 191 | 1.6 | 6.4 | 0.79 | 3.78 | 2.54 | 91 | 1007.4 |
| 20260506071803 | 10 | 243 | 0.0 | 3.2 | 0.89 | 3.73 | 2.49 | 91 | 1007.5 |
| 20260506071117 | 10 | 261 | 1.6 | 6.4 | 1.04 | 3.73 | 2.49 | 91 | 1007.5 |
| 20260506061803 | 10 | 202 | 0.0 | 1.6 | 0.25 | 2.84 | 1.60 | 91 | 1007.4 |
| 20260506061117 | 10 | 202 | 0.0 | 1.6 | 0.10 | 2.69 | 1.45 | 91 | 1007.4 |
| 20260506050903 | 10 | 205 | 0.0 | 3.2 | 0.00 | 2.59 | 1.35 | 91 | 1007.2 |
| 20260506050218 | 10 | 202 | 0.0 | 3.2 | 0.00 | 2.59 | 1.35 | 90 | 1007.1 |
| 20260506044503 | 10 | 186 | 1.6 | 4.8 | 0.00 | 2.59 | 1.35 | 90 | 1007.3 |
| 20260506043604 | 10 | 210 | 0.0 | 3.2 | 0.00 | 2.59 | 1.35 | 90 | 1007.2 |
| 20260506042917 | 10 | 195 | 0.0 | 4.8 | 0.00 | 2.59 | 1.35 | 90 | 1007.2 |
| 20260506041803 | 10 | 197 | 1.6 | 8.0 | 0.00 | 2.59 | 1.35 | 90 | 1007.1 |
| 20260506040903 | 10 | 238 | 3.2 | 6.4 | 0.00 | 2.59 | 1.35 | 90 | 1007.3 |
| 20260506040003 | 10 | 233 | 3.2 | 8.0 | 0.00 | 2.59 | 1.35 | 90 | 1007.3 |
| 20260506035403 | 10 | 224 | 3.2 | 8.0 | 0.00 | 2.59 | 1.35 | 90 | 1007.4 |
| 20260506034718 | 10 | 229 | 4.8 | 8.0 | 0.00 | 2.59 | 1.35 | 90 | 1007.4 |
| 20260506033603 | 10 | 223 | 6.4 | 11.3 | 0.00 | 2.59 | 1.35 | 90 | 1007.5 |
| 20260506032703 | 10 | 189 | 6.4 | 16.1 | 0.00 | 2.59 | 1.35 | 90 | 1007.4 |
| 20260506031803 | 10 | 201 | 6.4 | 14.5 | 0.05 | 2.59 | 1.35 | 90 | 1007.5 |
| 20260506031117 | 10 | 207 | 6.4 | 17.7 | 0.05 | 2.59 | 1.35 | 90 | 1007.6 |
| 20260506030217 | 10 | 225 | 9.7 | 17.7 | 0.05 | 2.59 | 1.35 | 91 | 1007.7 |
| 20260506025403 | 10 | 210 | 11.3 | 24.1 | 0.05 | 2.59 | 1.35 | 91 | 1007.7 |
| 20260506024503 | 10 | 219 | 8.0 | 16.1 | 0.05 | 2.59 | 1.35 | 91 | 1007.8 |
| 20260506023603 | 10 | 211 | 3.2 | 11.3 | 0.05 | 2.59 | 1.35 | 91 | 1008.0 |
| 20260506022703 | 10 | 241 | 3.2 | 11.3 | 0.05 | 2.59 | 1.35 | 91 | 1008.0 |
| 20260506021803 | 10 | 224 | 6.4 | 14.5 | 0.00 | 2.54 | 1.30 | 90 | 1008.1 |
| 20260506021117 | 10 | 211 | 4.8 | 14.5 | 0.05 | 2.54 | 1.30 | 90 | 1008.2 |
| 20260506020004 | 10 | 200 | 8.0 | 19.3 | 0.10 | 2.54 | 1.30 | 90 | 1008.3 |
| 20260506015403 | 10 | 198 | 9.7 | 19.3 | 0.20 | 2.54 | 1.30 | 90 | 1008.4 |
| 20260506014503 | 10 | 207 | 8.0 | 19.3 | 0.48 | 2.54 | 1.30 | 90 | 1008.3 |
| 20260506013603 | 10 | 210 | 9.7 | 19.3 | 0.74 | 2.54 | 1.30 | 90 | 1008.3 |
| 20260506012703 | 10 | 233 | 12.9 | 20.9 | 0.79 | 2.54 | 1.30 | 90 | 1008.2 |
| 20260506011803 | 10 | 246 | 9.7 | 17.7 | 0.79 | 2.54 | 1.30 | 90 | 1008.0 |
| 20260506010903 | 10 | 234 | 3.2 | 8.0 | 0.79 | 2.49 | 1.24 | 90 | 1008.0 |
| 20260506010004 | 10 | 275 | 0.0 | 3.2 | 0.74 | 2.44 | 1.19 | 90 | 1007.8 |
| 20260506005403 | 10 | 242 | 3.2 | 14.5 | 0.66 | 2.34 | 1.09 | 90 | 1007.7 |
| 20260506004503 | 10 | 267 | 4.8 | 14.5 | 0.66 | 2.06 | 0.84 | 90 | 1007.8 |
| 20260506003603 | 10 | 226 | 6.4 | 14.5 | 0.51 | 1.80 | 0.56 | 90 | 1007.6 |
| 20260506002703 | 10 | 191 | 8.0 | 19.3 | 0.51 | 1.75 | 0.51 | 90 | 1007.8 |
| 20260506001804 | 10 | 199 | 6.4 | 20.9 | 0.51 | 1.75 | 0.51 | 90 | 1007.8 |
| 20260506000903 | 10 | 208 | 1.6 | 12.9 | 0.48 | 1.70 | 0.46 | 90 | 1008.0 |
| 20260506000003 | 10 | 264 | 1.6 | 6.4 | 0.48 | 1.70 | 0.46 | 90 | 1008.2 |
| 20260505235403 | 10 | 263 | 3.2 | 14.5 | 0.41 | 1.65 | 0.41 | 90 | 1008.2 |
| 20260505234503 | 10 | 270 | 4.8 | 9.7 | 0.15 | 1.40 | 0.15 | 90 | 1008.2 |
| 20260505233603 | 10 | 219 | 9.7 | 17.7 | 0.05 | 1.30 | 0.05 | 90 | 1008.3 |
| 20260505232703 | 10 | 196 | 12.9 | 27.4 | 0.00 | 1.24 | 0.00 | 90 | 1008.3 |
| 20260505232017 | 10 | 202 | 11.3 | 27.4 | 0.00 | 1.24 | 0.00 | 90 | 1008.4 |
| 20260505230903 | 10 | 200 | 8.0 | 17.7 | 0.00 | 1.24 | 0.00 | 90 | 1008.5 |
| 20260505230004 | 10 | 172 | 8.0 | 17.7 | 0.00 | 1.24 | 0.00 | 90 | 1008.4 |
| 20260505225403 | 10 | 180 | 11.3 | 27.4 | 0.00 | 1.24 | 0.00 | 90 | 1008.4 |
| 20260505224503 | 10 | 174 | 11.3 | 22.5 | 0.00 | 1.24 | 0.00 | 90 | 1008.4 |
| 20260505223603 | 10 | 165 | 12.9 | 20.9 | 0.00 | 1.24 | 0.00 | 90 | 1008.5 |
| 20260505222703 | 10 | 183 | 11.3 | 27.4 | 0.00 | 1.24 | 0.00 | 90 | 1008.5 |
| 20260505221803 | 10 | 184 | 9.7 | 19.3 | 0.00 | 1.24 | 0.00 | 90 | 1008.7 |
| 20260505220903 | 10 | 171 | 11.3 | 25.7 | 0.00 | 1.24 | 0.00 | 90 | 1008.8 |
| 20260505220004 | 10 | 187 | 11.3 | 29.0 | 0.00 | 1.24 | 0.00 | 90 | 1008.6 |
| 20260505215403 | 10 | 183 | 12.9 | 25.7 | 0.00 | 1.24 | 1.24 | 90 | 1008.6 |
| 20260505214503 | 10 | 186 | 12.9 | 30.6 | 0.00 | 1.24 | 1.24 | 90 | 1008.7 |
| 20260505213817 | 10 | 186 | 11.3 | 29.0 | 0.00 | 1.24 | 1.24 | 90 | 1008.7 |
| 20260505212703 | 10 | 178 | 11.3 | 20.9 | 0.00 | 1.24 | 1.24 | 90 | 1008.7 |
| 20260505212018 | 10 | 184 | 14.5 | 33.8 | 0.00 | 1.24 | 1.24 | 90 | 1008.8 |
| 20260505210903 | 10 | 179 | 12.9 | 25.7 | 0.00 | 1.24 | 1.24 | 90 | 1008.7 |
| 20260505210003 | 10 | 180 | 11.3 | 24.1 | 0.00 | 1.24 | 1.24 | 90 | 1008.9 |
| 20260505205403 | 10 | 179 | 12.9 | 25.7 | 0.00 | 1.24 | 1.24 | 90 | 1008.9 |
| 20260505204503 | 10 | 185 | 16.1 | 29.0 | 0.00 | 1.24 | 1.24 | 90 | 1009.0 |
| 20260505203817 | 10 | 195 | 12.9 | 27.4 | 0.00 | 1.24 | 1.24 | 90 | 1009.0 |
| 20260505202916 | 10 | 178 | 14.5 | 29.0 | 0.00 | 1.24 | 1.24 | 90 | 1008.9 |
| 20260505201803 | 10 | 183 | 17.7 | 32.2 | 0.00 | 1.24 | 1.24 | 90 | 1009.0 |
| 20260505200903 | 10 | 190 | 17.7 | 29.0 | 0.00 | 1.24 | 1.24 | 90 | 1008.9 |
| 20260505200218 | 10 | 188 | 16.1 | 29.0 | 0.00 | 1.24 | 1.24 | 90 | 1008.9 |
| 20260505195403 | 10 | 191 | 16.1 | 29.0 | 0.00 | 1.24 | 1.24 | 90 | 1008.8 |
| 20260505194503 | 10 | 182 | 16.1 | 30.6 | 0.00 | 1.24 | 1.24 | 90 | 1009.0 |
| 20260505193603 | 10 | 184 | 16.1 | 29.0 | 0.05 | 1.24 | 1.24 | 90 | 1008.8 |
| 20260505192703 | 10 | 186 | 17.7 | 32.2 | 0.05 | 1.24 | 1.24 | 90 | 1008.7 |
| 20260505191804 | 10 | 195 | 17.7 | 32.2 | 0.10 | 1.24 | 1.24 | 90 | 1008.7 |
| 20260505190903 | 10 | 185 | 16.1 | 27.4 | 0.10 | 1.24 | 1.24 | 90 | 1008.6 |
| 20260505190004 | 10 | 181 | 12.9 | 27.4 | 0.10 | 1.24 | 1.24 | 90 | 1008.6 |